Home > Weather > Montreal > Past weeks

Flag for Canada Weather for the Past 2 Weeks in Montreal, Quebec, Canada

Now
30 °F

Ice fog.


Feels Like: 21 °F
Forecast: N/A
Wind: 10 mph from South

Location: Montreal - Pierre Elliot Trudeau International Aiport

Current Time: Feb 6, 2016 at 6:17:20 PM

Latest Report: Feb 6, 2016 at 5:00 PM


Visibility: 6 mi

Pressure: 30.08 "Hg

Humidity: 93%

Dew point: 28 °F

Location of MontrealLocation

Historic Weather in Montreal — Graph

°F

Montreal Temperature Yesterday

Maximum temperature yesterday: 32 °F (at 12:00 AM)
Minimum temperature yesterday: 21 °F (at 8:00 AM)
Average temperature yesterday: 26 °F

High & Low Weather Summary for the Past Weeks

 TemperatureHumidityPressure
High46 °F (Feb 1, 6:00 AM)93% (Jan 26, 3:00 PM)30.42 "Hg (Jan 26, 3:00 PM)
Low1 °F (Jan 24, 7:00 AM)49% (Feb 1, 3:00 PM)29.37 "Hg (Feb 1, 4:00 AM)
Average28 °F74%29.94 "Hg
* Reported Jan 22 4:00 PM — Feb 6 4:00 PM, Montreal, Weather by CustomWeather, © 2016

Note: Actual official high and low records may vary slightly from our data, if they occured in-between our weather recording intervals... More about our weather records

Advertising

Montreal Weather History for the Previous 24 Hours

 ConditionsComfort  
Time TempWeatherWind HumidityBarometerVisibility
4:00 PM
Sat, Feb 6
30 °FLight snow. Mostly cloudy.6 mph93%30.08 "Hg2 mi
3:53 PM30 °FLight snow. Mostly cloudy.8 mph93%30.09 "Hg2 mi
3:00 PM30 °FChilly.6 mph86%30.09 "Hg1 mi
2:00 PM30 °FLight snow. More clouds than sun.2 mph93%30.10 "Hg1 mi
1:00 PM28 °FLight snow. More clouds than sun.No wind93%30.12 "Hg2 mi
12:00 PM28 °FChilly.No wind93%30.15 "Hg2 mi
11:00 AM28 °FLight snow. Mostly cloudy.3 mph93%30.19 "Hg4 mi
10:45 AM28 °FLight snow. More clouds than sun.2 mph86%30.19 "Hg2 mi
10:00 AM28 °FLight snow. Mostly cloudy.3 mph86%30.21 "Hg1 mi
9:48 AM27 °FLight snow. Mostly cloudy.No wind93%30.21 "Hg2 mi
9:00 AM27 °FSnow flurries. More clouds than sun.2 mph86%30.21 "Hg4 mi
8:00 AM25 °FSnow flurries. More clouds than sun.5 mph80%30.22 "Hg6 mi
7:47 AM27 °FSnow flurries. Mostly cloudy.3 mph74%30.22 "Hg12 mi
7:00 AM25 °FPassing clouds.3 mph80%30.21 "Hg15 mi
6:00 AM25 °FPassing clouds.6 mph80%30.22 "Hg15 mi
5:00 AM27 °FPassing clouds.7 mph69%30.20 "Hg15 mi
4:00 AM27 °FPassing clouds.7 mph74%30.19 "Hg15 mi
3:00 AM25 °FPassing clouds.8 mph74%30.20 "Hg15 mi
2:00 AM25 °FPassing clouds.10 mph69%30.21 "Hg15 mi
1:00 AM23 °FPassing clouds.5 mph74%30.21 "Hg15 mi
12:00 AM23 °FPassing clouds.7 mph63%30.23 "Hg15 mi
11:00 PM
Fri, Feb 5
23 °FPassing clouds.8 mph63%30.24 "Hg15 mi
10:00 PM23 °FClear.8 mph63%30.24 "Hg15 mi
9:00 PM23 °FClear.9 mph68%30.25 "Hg15 mi
8:00 PM25 °FClear.9 mph59%30.24 "Hg15 mi
7:00 PM27 °FClear.12 mph54%30.24 "Hg15 mi
6:00 PM27 °FClear.10 mph54%30.23 "Hg15 mi
Weather by CustomWeather, © 2016

See weather overviewHow to use our weather pages